This demonstration page uses our WeatherBlox Daily Observations layout. Learn more.

Hourly Observations for January 18, 2020

Temp ( °F °C ) Dew Point ( °F °C ) Humidity (%) Winds ( mph kmh ) Pressure ( in mb ) Visibility ( mi km ) Precip ( " mm )
12:15 am 00:15 Cloudy 30 -1 28 -2.4 90 90 NNW 20 31 30.01 1016 10 16.0934 0 0
12:35 am 00:35 Cloudy 27 -2.6 25 -4.1 90 90 NW 20 31 30.05 1018 10 16.0934 0 0
12:55 am 00:55 Mostly Cloudy 25 -3.7 22 -5.7 86 86 NW 24 39 30.08 1019 10 16.0934 0 0
1:15 am 01:15 Cloudy 23 -5.1 18 -7.7 82 82 NNW 20 31 30.11 1020 10 16.0934 0 0
1:35 am 01:35 Partly Cloudy 22 -5.8 17 -8.6 81 81 NNW 15 24 30.14 1021 10 16.0934 0 0
1:55 am 01:55 Clear 21 -6.2 16 -8.8 82 82 NNW 14 22 30.16 1021 10 16.0934 0 0
2:15 am 02:15 Partly Cloudy 22 -5.8 17 -8.4 82 82 NW 12 19 30.16 1021 10 16.0934 0 0
2:35 am 02:35 Partly Cloudy 21 -5.9 17 -8.4 83 83 NW 13 20 30.19 1022 10 16.0934 0 0
2:55 am 02:55 Mostly Cloudy 23 -5.2 18 -7.9 82 82 NW 13 20 30.22 1023 10 16.0934 0 0
3:15 am 03:15 Partly Cloudy 24 -4.5 18 -7.6 79 79 NW 17 28 30.23 1024 10 16.0934 0 0
3:35 am 03:35 Clear 24 -4.2 17 -8.1 75 75 NW 18 30 30.23 1024 10 16.0934 0 0
3:55 am 03:55 Clear 24 -4.5 17 -8.6 73 73 NNW 16 26 30.24 1024 10 16.0934 0 0
4:15 am 04:15 Clear 23 -4.9 16 -9 73 73 NW 14 22 30.26 1025 10 16.0934 0 0
4:35 am 04:35 Clear 22 -5.5 16 -9 77 77 NW 16 26 30.29 1026 10 16.0934 0 0
4:55 am 04:55 Clear 22 -5.6 16 -9.1 77 77 NW 14 22 30.29 1026 10 16.0934 0 0
5:15 am 05:15 Clear 21 -5.9 16 -9 79 79 NW 12 19 30.3 1026 10 16.0934 0 0
5:35 am 05:35 Clear 21 -6 17 -8.5 83 83 NW 14 22 30.3 1026 10 16.0934 0 0
5:55 am 05:55 Clear 22 -5.7 17 -8.6 80 80 NW 16 26 30.31 1026 10 16.0934 0 0
6:15 am 06:15 Clear 22 -5.7 16 -9 78 78 NW 14 22 30.32 1027 10 16.0934 0 0
6:35 am 06:35 Clear 21 -5.9 16 -9 79 79 NW 13 20 30.34 1028 10 16.0934 0 0
6:55 am 06:55 Clear 20 -6.7 15 -9.2 83 83 NW 10 17 30.37 1028 10 16.0934 0 0
7:15 am 07:15 Clear 20 -6.8 15 -9.5 81 81 NW 12 19 30.38 1029 10 16.0934 0 0
7:35 am 07:35 Clear 19 -7 15 -9.6 82 82 NW 12 19 30.39 1029 10 16.0934 0 0
7:55 am 07:55 Clear 19 -7 15 -9.6 82 82 NW 12 19 30.41 1030 10 16.0934 0 0
8:15 am 08:15 Sunny 20 -6.5 15 -9.7 78 78 WNW 13 20 30.41 1030 10 16.0934 0 0
8:35 am 08:35 Sunny 20 -6.5 15 -9.5 80 80 NW 10 17 30.43 1030 10 16.0934 0 0
8:55 am 08:55 Sunny 22 -5.7 15 -9.2 77 77 WNW 12 19 30.43 1031 10 16.0934 0 0
9:15 am 09:15 Sunny 23 -5.2 16 -8.9 76 76 WNW 12 19 30.44 1031 10 16.0934 0 0
9:35 am 09:35 Sunny 24 -4.5 18 -8 77 77 WNW 9 15 30.43 1030 10 16.0934 0 0
9:55 am 09:55 Sunny 26 -3.6 19 -7.5 75 75 WNW 10 17 30.43 1031 10 16.0934 0 0
10:15 am 10:15 Sunny 27 -2.7 19 -7.3 71 71 WNW 13 20 30.42 1030 10 16.0934 0 0
10:35 am 10:35 Sunny 28 -2 20 -6.7 71 71 WNW 13 20 30.44 1031 10 16.0934 0 0
10:55 am 10:55 Sunny 29 -1.5 21 -6.3 70 70 NW 10 17 30.43 1030 10 16.0934 0 0
11:15 am 11:15 Sunny 31 -0.8 21 -6 68 68 NW 14 22 30.42 1030 10 16.0934 0 0
11:35 am 11:35 Sunny 31 -0.5 21 -6.3 65 65 NW 14 22 30.43 1030 10 16.0934 0 0
11:55 am 11:55 Sunny 32 -0.2 21 -6.3 64 64 NW 10 17 30.42 1030 10 16.0934 0 0
12:15 pm 12:15 Sunny 32 0 21 -6 64 64 WNW 14 22 30.42 1030 10 16.0934 0 0
12:35 pm 12:35 Sunny 32 0.2 22 -5.8 64 64 NW 10 17 30.42 1030 10 16.0934 0 0
12:55 pm 12:55 Sunny 33 0.5 22 -5.3 65 65 NW 12 19 30.41 1030 10 16.0934 0 0
1:15 pm 13:15 Sunny 33 0.6 22 -5.3 65 65 NW 15 24 30.41 1030 10 16.0934 0 0
1:35 pm 13:35 Sunny 34 1 23 -4.9 65 65 WNW 12 19 30.41 1030 10 16.0934 0 0
1:55 pm 13:55 Sunny 34 1.2 22 -5.4 62 62 WNW 14 22 30.39 1029 10 16.0934 0 0
2:15 pm 14:15 Sunny 35 1.4 23 -4.8 64 64 NW 10 17 30.39 1029 10 16.0934 0 0
2:35 pm 14:35 Sunny 35 1.5 23 -5.2 61 61 WNW 14 22 30.39 1029 10 16.0934 0 0
2:55 pm 14:55 Sunny 35 1.4 24 -4.4 66 66 WNW 12 19 30.39 1029 10 16.0934 0 0
3:15 pm 15:15 Sunny 35 1.6 23 -4.8 63 63 NW 14 22 30.39 1029 10 16.0934 0 0
3:35 pm 15:35 Sunny 34 1.3 23 -5.1 63 63 WNW 9 15 30.4 1030 10 16.0934 0 0
3:55 pm 15:55 Sunny 35 1.5 24 -4.7 64 64 WNW 10 17 30.4 1030 10 16.0934 0 0
4:15 pm 16:15 Sunny 35 1.5 23 -4.9 63 63 WNW 9 15 30.4 1030 10 16.0934 0 0
4:35 pm 16:35 Sunny 34 1.3 23 -4.9 64 64 WNW 9 15 30.4 1030 10 16.0934 0 0
4:55 pm 16:55 Sunny 34 1.2 24 -4.6 66 66 WNW 9 15 30.4 1030 10 16.0934 0 0
5:15 pm 17:15 Sunny 34 1.2 24 -4.3 67 67 WNW 8 13 30.41 1030 10 16.0934 0 0
5:35 pm 17:35 Sunny 33 0.5 24 -4.4 70 70 Calm 30.43 1031 10 16.0934 0 0
5:55 pm 17:55 Clear 32 0 24 -4.2 74 74 W 3 6 30.44 1031 10 16.0934 0 0
6:15 pm 18:15 Clear 30 -1 24 -4.6 77 77 Calm 30.45 1031 10 16.0934 0 0
6:35 pm 18:35 Clear 31 -0.8 24 -4.5 76 76 Calm 30.44 1031 10 16.0934 0 0
6:55 pm 18:55 Clear 29 -1.4 23 -4.9 77 77 SSE 5 7 30.46 1031 10 16.0934 0 0
7:15 pm 19:15 Clear 29 -1.6 24 -4.3 82 82 Calm 30.47 1032 10 16.0934 0 0
7:35 pm 19:35 Clear 28 -2.1 24 -4.5 84 84 Calm 30.48 1032 10 16.0934 0 0
7:55 pm 19:55 Clear 27 -2.7 24 -4.6 87 87 Calm 30.48 1032 10 16.0934 0 0
8:15 pm 20:15 Clear 29 -1.8 23 -5 79 79 Calm 30.47 1032 10 16.0934 0 0
8:35 pm 20:35 Clear 29 -1.8 22 -5.7 75 75 W 7 11 30.47 1032 10 16.0934 0 0
8:55 pm 20:55 Clear 29 -1.5 22 -5.3 76 76 W 9 15 30.47 1032 10 16.0934 0 0
9:15 pm 21:15 Clear 28 -2 22 -5.6 77 77 W 5 7 30.48 1032 10 16.0934 0 0
9:35 pm 21:35 Clear 27 -2.7 21 -6.1 78 78 W 7 11 30.49 1033 10 16.0934 0 0
9:55 pm 21:55 Clear 27 -2.9 21 -6.3 78 78 W 3 6 30.49 1033 10 16.0934 0 0
10:15 pm 22:15 Clear 25 -3.9 20 -6.5 82 82 W 7 11 30.5 1033 10 16.0934 0 0
10:35 pm 22:35 Clear 25 -3.9 20 -6.7 81 81 W 5 7 30.5 1033 10 16.0934 0 0
10:55 pm 22:55 Clear 24 -4.4 20 -6.8 84 84 W 3 6 30.51 1033 10 16.0934 0 0
11:15 pm 23:15 Clear 25 -4 20 -6.7 82 82 W 5 7 30.52 1033 10 16.0934 0 0
11:35 pm 23:35 Clear 22 -5.8 17 -8.2 83 83 N 5 7 30.54 1034 10 16.0934 0 0
11:55 pm 23:55 Clear 20 -6.5 18 -8 89 89 Calm 30.56 1035 10 16.0934 0 0

Powered by AerisWeather